Location: Zagreb
(45.8000°N, 16.0000°E)
Time: 22:06:04
(UTC+01:00)

Explorer 7 - Visible Passes

Search period start: 25 January 2022 00:00
Search period end: 04 February 2022 00:00
Orbit: 483 x 674 km, 50.3° (Epoch: 24 January)

Date Brightness Start Highest point End Pass type
(mag) Time Alt. Az. Time Alt. Az. Time Alt. Az.
01 Feb 9.8 05:46:41 10° SSE 05:48:01 11° SE 05:49:20 10° ESE visible
02 Feb 9.4 05:48:54 10° S 05:51:35 18° SE 05:54:20 10° E visible
03 Feb 8.6 05:51:55 10° SSW 05:55:13 28° SE 05:58:37 10° E visible
